Time,TemperatureF,DewpointF,PressureIn,WindDirection,WindDirectionDegrees,WindSpeedMPH,WindSpeedGustMPH,Humidity,HourlyPrecipIn,Conditions,Clouds,dailyrainin,SoftwareType,DateUTC
2013-02-06 00:00:00,21.2,14.5,30.04,NW,315,1.0,5.0,75,0.00,,---,0.00,VWS V14.00,2013-02-06 06:00:00,
2013-02-06 00:05:00,21.0,14.3,30.05,NNW,340,0.0,3.0,75,0.00,,---,0.00,VWS V14.00,2013-02-06 06:05:00,
2013-02-06 00:10:00,20.7,14.0,30.05,WNW,284,0.0,3.0,75,0.00,,---,0.00,VWS V14.00,2013-02-06 06:10:00,
2013-02-06 00:15:00,20.4,14.1,30.05,WNW,288,0.0,1.0,76,0.00,,---,0.00,VWS V14.00,2013-02-06 06:15:00,
2013-02-06 00:20:00,20.2,13.9,30.05,NNW,328,0.0,1.0,76,0.00,,---,0.00,VWS V14.00,2013-02-06 06:20:00,
2013-02-06 00:25:00,20.0,14.0,30.05,North,5,1.0,2.0,77,0.00,,---,0.00,VWS V14.00,2013-02-06 06:25:00,
2013-02-06 00:30:00,19.7,13.7,30.05,North,5,0.0,1.0,77,0.00,,---,0.00,VWS V14.00,2013-02-06 06:30:00,
2013-02-06 00:35:00,19.5,13.5,30.05,North,5,0.0,0.0,77,0.00,,---,0.00,VWS V14.00,2013-02-06 06:35:00,
2013-02-06 00:40:00,19.2,13.5,30.05,North,5,0.0,0.0,78,0.00,,---,0.00,VWS V14.00,2013-02-06 06:40:00,
2013-02-06 00:45:00,18.9,13.2,30.05,North,5,0.0,0.0,78,0.00,,---,0.00,VWS V14.00,2013-02-06 06:45:00,
2013-02-06 00:50:00,18.2,12.5,30.06,North,5,0.0,0.0,78,0.00,,---,0.00,VWS V14.00,2013-02-06 06:50:00,
2013-02-06 00:55:00,17.4,12.0,30.06,North,5,0.0,0.0,79,0.00,,---,0.00,VWS V14.00,2013-02-06 06:55:00,
2013-02-06 01:00:00,17.1,12.3,30.06,North,5,0.0,0.0,81,0.00,,---,0.00,VWS V14.00,2013-02-06 07:00:00,
2013-02-06 01:05:00,17.2,12.7,30.06,North,5,0.0,0.0,82,0.00,,---,0.00,VWS V14.00,2013-02-06 07:05:00,
2013-02-06 01:10:00,17.3,12.8,30.06,North,5,0.0,0.0,82,0.00,,---,0.00,VWS V14.00,2013-02-06 07:10:00,
2013-02-06 01:15:00,17.0,12.2,30.06,North,5,0.0,0.0,81,0.00,,---,0.00,VWS V14.00,2013-02-06 07:15:00,
2013-02-06 01:20:00,16.4,11.9,30.07,North,5,0.0,0.0,82,0.00,,---,0.00,VWS V14.00,2013-02-06 07:20:00,
2013-02-06 01:25:00,16.3,12.1,30.07,North,5,0.0,0.0,83,0.00,,---,0.00,VWS V14.00,2013-02-06 07:25:00,
2013-02-06 01:30:00,16.2,12.0,30.07,North,5,0.0,0.0,83,0.00,,---,0.00,VWS V14.00,2013-02-06 07:30:00,
2013-02-06 01:35:00,16.1,11.9,30.07,North,5,0.0,0.0,83,0.00,,---,0.00,VWS V14.00,2013-02-06 07:35:00,
2013-02-06 01:40:00,16.0,12.0,30.07,North,5,0.0,0.0,84,0.00,,---,0.00,VWS V14.00,2013-02-06 07:40:00,
2013-02-06 01:45:00,15.9,11.9,30.07,North,5,0.0,0.0,84,0.00,,---,0.00,VWS V14.00,2013-02-06 07:45:00,
2013-02-06 01:50:00,15.8,12.1,30.08,North,5,0.0,0.0,85,0.00,,---,0.00,VWS V14.00,2013-02-06 07:50:00,
2013-02-06 01:55:00,15.8,12.1,30.08,North,5,0.0,0.0,85,0.00,,---,0.00,VWS V14.00,2013-02-06 07:55:00,
2013-02-06 02:00:00,15.6,11.6,30.08,North,5,0.0,0.0,84,0.00,,---,0.00,VWS V14.00,2013-02-06 08:00:00,
2013-02-06 02:05:00,15.4,11.4,30.08,North,5,0.0,0.0,84,0.00,,---,0.00,VWS V14.00,2013-02-06 08:05:00,
2013-02-06 02:10:00,15.2,11.5,30.08,North,5,0.0,0.0,85,0.00,,---,0.00,VWS V14.00,2013-02-06 08:10:00,
2013-02-06 02:15:00,14.8,11.1,30.08,North,5,0.0,0.0,85,0.00,,---,0.00,VWS V14.00,2013-02-06 08:15:00,
2013-02-06 02:20:00,14.6,10.9,30.09,North,5,0.0,0.0,85,0.00,,---,0.00,VWS V14.00,2013-02-06 08:20:00,
2013-02-06 02:25:00,14.5,11.1,30.09,North,5,0.0,0.0,86,0.00,,---,0.00,VWS V14.00,2013-02-06 08:25:00,
2013-02-06 02:30:00,14.0,10.3,30.09,North,5,0.0,0.0,85,0.00,,---,0.00,VWS V14.00,2013-02-06 08:30:00,
2013-02-06 02:35:00,13.2,9.6,30.09,North,5,0.0,0.0,85,0.00,,---,0.00,VWS V14.00,2013-02-06 08:35:00,
2013-02-06 02:40:00,13.0,9.6,30.09,North,5,0.0,0.0,86,0.00,,---,0.00,VWS V14.00,2013-02-06 08:40:00,
2013-02-06 02:45:00,13.1,10.2,30.09,North,5,0.0,1.0,88,0.00,,---,0.00,VWS V14.00,2013-02-06 08:45:00,
2013-02-06 02:50:00,12.8,9.7,30.08,North,5,0.0,0.0,87,0.00,,---,0.00,VWS V14.00,2013-02-06 08:50:00,
2013-02-06 02:55:00,12.5,9.4,30.08,North,5,0.0,0.0,87,0.00,,---,0.00,VWS V14.00,2013-02-06 08:55:00,
2013-02-06 03:00:00,12.2,9.1,30.08,North,5,0.0,0.0,87,0.00,,---,0.00,VWS V14.00,2013-02-06 09:00:00,
2013-02-06 03:05:00,11.6,8.5,30.09,North,5,0.0,0.0,87,0.00,,---,0.00,VWS V14.00,2013-02-06 09:05:00,
2013-02-06 03:10:00,11.3,8.4,30.09,North,5,0.0,0.0,88,0.00,,---,0.00,VWS V14.00,2013-02-06 09:10:00,
2013-02-06 03:15:00,11.2,8.4,30.09,North,5,0.0,0.0,88,0.00,,---,0.00,VWS V14.00,2013-02-06 09:15:00,
2013-02-06 03:20:00,11.6,9.2,30.09,North,5,0.0,0.0,90,0.00,,---,0.00,VWS V14.00,2013-02-06 09:20:00,
2013-02-06 03:25:00,11.7,9.3,30.09,North,5,0.0,0.0,90,0.00,,---,0.00,VWS V14.00,2013-02-06 09:25:00,
2013-02-06 03:30:00,11.7,9.3,30.09,North,5,0.0,1.0,90,0.00,,---,0.00,VWS V14.00,2013-02-06 09:30:00,
2013-02-06 03:35:00,11.8,9.7,30.09,North,5,0.0,1.0,91,0.00,,---,0.00,VWS V14.00,2013-02-06 09:35:00,
2013-02-06 03:40:00,11.9,9.5,30.09,North,5,0.0,0.0,90,0.00,,---,0.00,VWS V14.00,2013-02-06 09:40:00,
2013-02-06 03:45:00,11.7,9.3,30.09,North,5,0.0,0.0,90,0.00,,---,0.00,VWS V14.00,2013-02-06 09:45:00,
2013-02-06 03:50:00,11.3,8.7,30.09,North,5,0.0,0.0,89,0.00,,---,0.00,VWS V14.00,2013-02-06 09:50:00,
2013-02-06 03:55:00,10.8,8.2,30.09,North,5,0.0,0.0,89,0.00,,---,0.00,VWS V14.00,2013-02-06 09:55:00,
2013-02-06 04:00:00,10.5,8.1,30.09,North,5,0.0,0.0,90,0.00,,---,0.00,VWS V14.00,2013-02-06 10:00:00,
2013-02-06 04:05:00,10.2,7.9,30.10,North,5,0.0,0.0,90,0.00,,---,0.00,VWS V14.00,2013-02-06 10:05:00,
2013-02-06 04:10:00,10.1,7.8,30.10,North,5,0.0,0.0,90,0.00,,---,0.00,VWS V14.00,2013-02-06 10:10:00,
2013-02-06 04:15:00,9.8,7.5,30.10,North,5,0.0,1.0,90,0.00,,---,0.00,VWS V14.00,2013-02-06 10:15:00,
2013-02-06 04:20:00,9.6,7.3,30.10,North,5,0.0,0.0,90,0.00,,---,0.00,VWS V14.00,2013-02-06 10:20:00,
2013-02-06 04:25:00,9.5,7.2,30.10,North,5,0.0,0.0,90,0.00,,---,0.00,VWS V14.00,2013-02-06 10:25:00,
2013-02-06 04:30:00,9.4,7.1,30.10,North,5,0.0,0.0,90,0.00,,---,0.00,VWS V14.00,2013-02-06 10:30:00,
2013-02-06 04:35:00,9.4,7.3,30.10,North,5,0.0,0.0,91,0.00,,---,0.00,VWS V14.00,2013-02-06 10:35:00,
2013-02-06 04:40:00,9.1,6.8,30.10,North,5,0.0,0.0,90,0.00,,---,0.00,VWS V14.00,2013-02-06 10:40:00,
2013-02-06 04:45:00,8.6,6.3,30.10,North,5,0.0,1.0,90,0.00,,---,0.00,VWS V14.00,2013-02-06 10:45:00,
2013-02-06 04:50:00,8.7,6.6,30.11,North,5,0.0,1.0,91,0.00,,---,0.00,VWS V14.00,2013-02-06 10:50:00,
2013-02-06 04:55:00,9.0,6.9,30.11,North,5,0.0,0.0,91,0.00,,---,0.00,VWS V14.00,2013-02-06 10:55:00,
2013-02-06 05:00:00,9.2,7.1,30.11,North,5,0.0,0.0,91,0.00,,---,0.00,VWS V14.00,2013-02-06 11:00:00,
2013-02-06 05:05:00,9.1,7.0,30.12,North,5,0.0,0.0,91,0.00,,---,0.00,VWS V14.00,2013-02-06 11:05:00,
2013-02-06 05:10:00,9.1,7.0,30.12,North,5,0.0,0.0,91,0.00,,---,0.00,VWS V14.00,2013-02-06 11:10:00,
2013-02-06 05:15:00,8.7,6.4,30.12,North,5,0.0,0.0,90,0.00,,---,0.00,VWS V14.00,2013-02-06 11:15:00,
2013-02-06 05:20:00,8.3,6.0,30.12,North,5,0.0,0.0,90,0.00,,---,0.00,VWS V14.00,2013-02-06 11:20:00,
2013-02-06 05:25:00,7.8,5.5,30.12,North,5,0.0,0.0,90,0.00,,---,0.00,VWS V14.00,2013-02-06 11:25:00,
2013-02-06 05:30:00,7.7,5.4,30.12,North,5,0.0,0.0,90,0.00,,---,0.00,VWS V14.00,2013-02-06 11:30:00,
2013-02-06 05:35:00,7.8,5.7,30.11,North,5,0.0,0.0,91,0.00,,---,0.00,VWS V14.00,2013-02-06 11:35:00,
2013-02-06 05:40:00,7.8,5.5,30.11,North,5,0.0,0.0,90,0.00,,---,0.00,VWS V14.00,2013-02-06 11:40:00,
2013-02-06 05:45:00,7.9,5.6,30.11,North,5,0.0,0.0,90,0.00,,---,0.00,VWS V14.00,2013-02-06 11:45:00,
2013-02-06 05:50:00,7.7,5.4,30.11,North,5,0.0,0.0,90,0.00,,---,0.00,VWS V14.00,2013-02-06 11:50:00,
2013-02-06 05:55:00,7.9,5.8,30.11,North,5,0.0,0.0,91,0.00,,---,0.00,VWS V14.00,2013-02-06 11:55:00,
2013-02-06 06:00:00,8.6,6.8,30.11,North,5,0.0,0.0,92,0.00,,---,0.00,VWS V14.00,2013-02-06 12:00:00,
2013-02-06 06:05:00,8.7,6.6,30.12,North,5,0.0,0.0,91,0.00,,---,0.00,VWS V14.00,2013-02-06 12:05:00,
2013-02-06 06:10:00,8.5,6.4,30.12,North,5,0.0,0.0,91,0.00,,---,0.00,VWS V14.00,2013-02-06 12:10:00,
2013-02-06 06:15:00,8.3,6.0,30.12,North,5,0.0,0.0,90,0.00,,---,0.00,VWS V14.00,2013-02-06 12:15:00,
2013-02-06 06:20:00,8.4,6.3,30.12,North,5,0.0,0.0,91,0.00,,---,0.00,VWS V14.00,2013-02-06 12:20:00,
2013-02-06 06:25:00,8.4,6.3,30.12,North,5,0.0,0.0,91,0.00,,---,0.00,VWS V14.00,2013-02-06 12:25:00,
2013-02-06 06:30:00,8.2,5.9,30.12,North,5,0.0,0.0,90,0.00,,---,0.00,VWS V14.00,2013-02-06 12:30:00,
2013-02-06 06:35:00,7.6,5.3,30.13,North,5,0.0,0.0,90,0.00,,---,0.00,VWS V14.00,2013-02-06 12:35:00,
2013-02-06 06:40:00,7.4,5.1,30.13,North,5,0.0,1.0,90,0.00,,---,0.00,VWS V14.00,2013-02-06 12:40:00,
2013-02-06 06:45:00,7.2,4.9,30.13,North,5,1.0,1.0,90,0.00,,---,0.00,VWS V14.00,2013-02-06 12:45:00,
2013-02-06 06:50:00,7.0,4.7,30.12,North,5,0.0,1.0,90,0.00,,---,0.00,VWS V14.00,2013-02-06 12:50:00,
2013-02-06 06:55:00,6.8,4.5,30.12,North,5,0.0,0.0,90,0.00,,---,0.00,VWS V14.00,2013-02-06 12:55:00,
2013-02-06 07:00:00,7.0,4.9,30.12,North,5,0.0,0.0,91,0.00,,---,0.00,VWS V14.00,2013-02-06 13:00:00,
2013-02-06 07:05:00,7.3,5.2,30.12,North,5,0.0,0.0,91,0.00,,---,0.00,VWS V14.00,2013-02-06 13:05:00,
2013-02-06 07:10:00,7.4,5.3,30.12,North,5,0.0,0.0,91,0.00,,---,0.00,VWS V14.00,2013-02-06 13:10:00,
2013-02-06 07:15:00,7.6,5.5,30.12,North,5,0.0,0.0,91,0.00,,---,0.00,VWS V14.00,2013-02-06 13:15:00,
2013-02-06 07:20:00,7.7,5.6,30.12,North,5,0.0,0.0,91,0.00,,---,0.00,VWS V14.00,2013-02-06 13:20:00,
2013-02-06 07:25:00,7.9,5.8,30.12,North,5,0.0,0.0,91,0.00,,---,0.00,VWS V14.00,2013-02-06 13:25:00,
2013-02-06 07:30:00,8.1,6.0,30.12,North,5,0.0,1.0,91,0.00,,---,0.00,VWS V14.00,2013-02-06 13:30:00,
2013-02-06 07:35:00,8.7,6.9,30.14,North,5,0.0,0.0,92,0.00,,---,0.00,VWS V14.00,2013-02-06 13:35:00,
2013-02-06 07:40:00,9.0,6.9,30.14,North,5,0.0,0.0,91,0.00,,---,0.00,VWS V14.00,2013-02-06 13:40:00,
2013-02-06 07:45:00,9.7,7.8,30.14,North,5,0.0,0.0,92,0.00,,---,0.00,VWS V14.00,2013-02-06 13:45:00,
2013-02-06 07:50:00,10.4,8.5,30.14,North,5,0.0,0.0,92,0.00,,---,0.00,VWS V14.00,2013-02-06 13:50:00,
2013-02-06 07:55:00,10.9,8.8,30.14,North,5,0.0,0.0,91,0.00,,---,0.00,VWS V14.00,2013-02-06 13:55:00,
2013-02-06 08:00:00,11.6,9.7,30.14,North,5,0.0,0.0,92,0.00,,---,0.00,VWS V14.00,2013-02-06 14:00:00,
2013-02-06 08:05:00,12.3,10.4,30.16,North,5,0.0,2.0,92,0.00,,---,0.00,VWS V14.00,2013-02-06 14:05:00,
2013-02-06 08:10:00,12.9,11.0,30.16,West,271,0.0,0.0,92,0.00,,---,0.00,VWS V14.00,2013-02-06 14:10:00,
2013-02-06 08:15:00,13.9,12.0,30.16,WSW,244,0.0,2.0,92,0.00,,---,0.00,VWS V14.00,2013-02-06 14:15:00,
2013-02-06 08:20:00,14.6,12.5,30.17,SW,236,0.0,1.0,91,0.00,,---,0.00,VWS V14.00,2013-02-06 14:20:00,
2013-02-06 08:25:00,15.0,12.6,30.17,SSW,192,0.0,1.0,90,0.00,,---,0.00,VWS V14.00,2013-02-06 14:25:00,
2013-02-06 08:30:00,15.4,12.7,30.17,SSW,192,0.0,2.0,89,0.00,,---,0.00,VWS V14.00,2013-02-06 14:30:00,
2013-02-06 08:35:00,15.6,12.7,30.16,SSW,192,0.0,2.0,88,0.00,,---,0.00,VWS V14.00,2013-02-06 14:35:00,
2013-02-06 08:40:00,15.8,12.6,30.16,South,188,1.0,2.0,87,0.00,,---,0.00,VWS V14.00,2013-02-06 14:40:00,
2013-02-06 08:45:00,16.1,12.9,30.16,South,188,0.0,2.0,87,0.00,,---,0.00,VWS V14.00,2013-02-06 14:45:00,
2013-02-06 08:50:00,16.7,13.5,30.16,South,188,0.0,0.0,87,0.00,,---,0.00,VWS V14.00,2013-02-06 14:50:00,
2013-02-06 08:55:00,17.3,13.8,30.16,South,188,2.0,2.0,86,0.00,,---,0.00,VWS V14.00,2013-02-06 14:55:00,
2013-02-06 09:00:00,17.9,14.4,30.16,SSW,198,1.0,3.0,86,0.00,,---,0.00,VWS V14.00,2013-02-06 15:00:00,
2013-02-06 09:05:00,18.6,14.9,30.17,South,190,2.0,5.0,85,0.00,,---,0.00,VWS V14.00,2013-02-06 15:05:00,
2013-02-06 09:10:00,19.0,14.4,30.17,South,186,2.0,4.0,82,0.00,,---,0.00,VWS V14.00,2013-02-06 15:10:00,
2013-02-06 09:15:00,19.5,14.9,30.17,SSW,201,2.0,4.0,82,0.00,,---,0.00,VWS V14.00,2013-02-06 15:15:00,
2013-02-06 09:20:00,20.0,15.1,30.17,SSW,194,3.0,4.0,81,0.00,,---,0.00,VWS V14.00,2013-02-06 15:20:00,
2013-02-06 09:25:00,20.4,15.2,30.17,SSW,195,4.0,6.0,80,0.00,,---,0.00,VWS V14.00,2013-02-06 15:25:00,
2013-02-06 09:30:00,20.7,15.5,30.17,SSW,194,2.0,4.0,80,0.00,,---,0.00,VWS V14.00,2013-02-06 15:30:00,
2013-02-06 09:35:00,21.3,15.8,30.17,SSW,201,0.0,5.0,79,0.00,,---,0.00,VWS V14.00,2013-02-06 15:35:00,
2013-02-06 09:40:00,21.6,15.8,30.17,SSW,205,1.0,3.0,78,0.00,,---,0.00,VWS V14.00,2013-02-06 15:40:00,
2013-02-06 09:45:00,22.0,15.9,30.17,SSE,166,4.0,5.0,77,0.00,,---,0.00,VWS V14.00,2013-02-06 15:45:00,
2013-02-06 09:50:00,22.0,15.6,30.17,SSE,153,2.0,4.0,76,0.00,,---,0.00,VWS V14.00,2013-02-06 15:50:00,
2013-02-06 09:55:00,22.4,16.0,30.17,South,170,1.0,2.0,76,0.00,,---,0.00,VWS V14.00,2013-02-06 15:55:00,
2013-02-06 10:00:00,22.4,15.7,30.17,SE,138,5.0,6.0,75,0.00,,---,0.00,VWS V14.00,2013-02-06 16:00:00,
2013-02-06 10:05:00,22.3,15.6,30.17,South,173,2.0,6.0,75,0.00,,---,0.00,VWS V14.00,2013-02-06 16:05:00,
2013-02-06 10:10:00,22.6,16.2,30.17,South,175,3.0,6.0,76,0.00,,---,0.00,VWS V14.00,2013-02-06 16:10:00,
2013-02-06 10:15:00,22.9,15.9,30.17,SSW,201,4.0,7.0,74,0.00,,---,0.00,VWS V14.00,2013-02-06 16:15:00,
2013-02-06 10:20:00,22.8,15.8,30.17,SSW,207,7.0,7.0,74,0.00,,---,0.00,VWS V14.00,2013-02-06 16:20:00,
2013-02-06 10:25:00,23.0,16.0,30.17,SSW,194,3.0,6.0,74,0.00,,---,0.00,VWS V14.00,2013-02-06 16:25:00,
2013-02-06 10:30:00,23.2,15.8,30.17,SW,216,3.0,7.0,73,0.00,,---,0.00,VWS V14.00,2013-02-06 16:30:00,
2013-02-06 10:35:00,23.4,16.4,30.18,SSW,194,5.0,6.0,74,0.00,,---,0.00,VWS V14.00,2013-02-06 16:35:00,
2013-02-06 10:40:00,23.4,16.4,30.18,SSW,202,5.0,5.0,74,0.00,,---,0.00,VWS V14.00,2013-02-06 16:40:00,
2013-02-06 10:45:00,23.6,16.5,30.18,SSW,196,4.0,4.0,74,0.00,,---,0.00,VWS V14.00,2013-02-06 16:45:00,
2013-02-06 10:50:00,23.9,16.5,30.17,South,175,2.0,5.0,73,0.00,,---,0.01,VWS V14.00,2013-02-06 16:50:00,
2013-02-06 10:55:00,24.1,16.7,30.17,South,171,3.0,6.0,73,0.00,,---,0.01,VWS V14.00,2013-02-06 16:55:00,
2013-02-06 11:00:00,24.0,16.3,30.17,South,185,4.0,6.0,72,0.00,,---,0.01,VWS V14.00,2013-02-06 17:00:00,
2013-02-06 11:05:00,24.3,16.9,30.16,SSW,204,7.0,7.0,73,0.00,,---,0.01,VWS V14.00,2013-02-06 17:05:00,
2013-02-06 11:09:00,24.8,17.4,30.16,WSW,246,2.0,5.0,73,0.00,,---,0.01,VWS V14.00,2013-02-06 17:09:00,
2013-02-06 11:14:00,25.0,17.3,30.16,SW,215,6.0,8.0,72,0.00,,---,0.02,VWS V14.00,2013-02-06 17:14:00,
2013-02-06 11:20:00,25.2,17.8,30.17,SSE,159,4.0,4.0,73,0.00,,---,0.02,VWS V14.00,2013-02-06 17:20:00,
2013-02-06 11:24:00,25.4,17.6,30.17,SSE,164,4.0,7.0,72,0.00,,---,0.02,VWS V14.00,2013-02-06 17:24:00,
2013-02-06 11:29:00,25.2,17.5,30.17,SSW,200,2.0,7.0,72,0.00,,---,0.02,VWS V14.00,2013-02-06 17:29:00,
2013-02-06 11:34:00,25.5,18.1,30.17,SW,217,3.0,4.0,73,0.00,,---,0.02,VWS V14.00,2013-02-06 17:34:00,
2013-02-06 11:39:00,26.1,18.0,30.17,SSW,207,4.0,4.0,71,0.00,,---,0.02,VWS V14.00,2013-02-06 17:39:00,
2013-02-06 11:44:00,26.3,18.2,30.17,South,180,1.0,3.0,71,0.00,,---,0.02,VWS V14.00,2013-02-06 17:44:00,
2013-02-06 11:50:00,26.8,18.3,30.16,SSE,166,4.0,6.0,70,0.00,,---,0.03,VWS V14.00,2013-02-06 17:50:00,
2013-02-06 11:55:00,26.8,18.3,30.16,SE,138,5.0,6.0,70,0.00,,---,0.03,VWS V14.00,2013-02-06 17:55:00,
2013-02-06 12:00:00,26.9,19.1,30.16,SSW,198,2.0,6.0,72,0.00,,---,0.03,VWS V14.00,2013-02-06 18:00:00,
2013-02-06 12:04:00,27.0,18.5,30.14,SSE,151,9.0,9.0,70,0.00,,---,0.03,VWS V14.00,2013-02-06 18:04:00,
2013-02-06 12:09:00,27.2,19.1,30.14,SSW,208,6.0,6.0,71,0.00,,---,0.03,VWS V14.00,2013-02-06 18:09:00,
2013-02-06 12:14:00,27.4,18.9,30.14,SSW,199,2.0,7.0,70,0.00,,---,0.03,VWS V14.00,2013-02-06 18:14:00,
2013-02-06 12:19:00,27.7,19.5,30.16,WSW,247,1.0,3.0,71,0.00,,---,0.04,VWS V14.00,2013-02-06 18:19:00,
2013-02-06 12:24:00,28.1,19.6,30.16,WSW,257,6.0,6.0,70,0.00,,---,0.04,VWS V14.00,2013-02-06 18:24:00,
2013-02-06 12:29:00,28.0,19.2,30.16,SSE,167,4.0,10.0,69,0.00,,---,0.04,VWS V14.00,2013-02-06 18:29:00,
2013-02-06 12:34:00,28.0,19.5,30.14,SW,215,4.0,8.0,70,0.00,,---,0.04,VWS V14.00,2013-02-06 18:34:00,
2013-02-06 12:39:00,28.1,19.9,30.14,SSE,161,5.0,7.0,71,0.00,,---,0.04,VWS V14.00,2013-02-06 18:39:00,
2013-02-06 12:44:00,28.1,19.6,30.14,SSE,163,9.0,9.0,70,0.00,,---,0.04,VWS V14.00,2013-02-06 18:44:00,
2013-02-06 12:49:00,28.0,19.8,30.14,SSW,196,1.0,6.0,71,0.00,,---,0.04,VWS V14.00,2013-02-06 18:49:00,
2013-02-06 12:54:00,28.2,19.7,30.14,South,170,4.0,4.0,70,0.00,,---,0.05,VWS V14.00,2013-02-06 18:54:00,
2013-02-06 12:59:00,28.4,19.9,30.14,SSW,199,3.0,4.0,70,0.00,,---,0.05,VWS V14.00,2013-02-06 18:59:00,
2013-02-06 13:04:00,28.5,20.0,30.14,South,174,4.0,5.0,70,0.00,,---,0.05,VWS V14.00,2013-02-06 19:04:00,
2013-02-06 13:09:00,28.0,19.5,30.14,South,171,3.0,9.0,70,0.00,,---,0.05,VWS V14.00,2013-02-06 19:09:00,
2013-02-06 13:14:00,28.2,20.0,30.14,SSW,204,4.0,8.0,71,0.00,,---,0.05,VWS V14.00,2013-02-06 19:14:00,
2013-02-06 13:19:00,28.4,19.9,30.14,SSW,192,6.0,10.0,70,0.00,,---,0.05,VWS V14.00,2013-02-06 19:19:00,
2013-02-06 13:24:00,28.4,20.2,30.14,South,180,6.0,6.0,71,0.00,,---,0.05,VWS V14.00,2013-02-06 19:24:00,
2013-02-06 13:29:00,28.6,20.4,30.14,South,174,4.0,8.0,71,0.00,,---,0.05,VWS V14.00,2013-02-06 19:29:00,
2013-02-06 13:34:00,28.5,20.0,30.13,SE,136,5.0,5.0,70,0.00,,---,0.05,VWS V14.00,2013-02-06 19:34:00,
2013-02-06 13:39:00,28.8,20.6,30.13,SSE,160,5.0,7.0,71,0.00,,---,0.05,VWS V14.00,2013-02-06 19:39:00,
2013-02-06 13:44:00,28.9,20.4,30.13,South,184,4.0,8.0,70,0.00,,---,0.05,VWS V14.00,2013-02-06 19:44:00,
2013-02-06 13:49:00,29.0,20.8,30.13,SSW,194,2.0,8.0,71,0.00,,---,0.05,VWS V14.00,2013-02-06 19:49:00,
2013-02-06 13:54:00,29.4,20.8,30.13,SSE,168,3.0,7.0,70,0.00,,---,0.05,VWS V14.00,2013-02-06 19:54:00,
2013-02-06 13:59:00,29.6,21.0,30.13,SSW,193,6.0,8.0,70,0.00,,---,0.05,VWS V14.00,2013-02-06 19:59:00,
2013-02-06 14:04:00,29.6,21.4,30.12,SW,227,3.0,7.0,71,0.00,,---,0.05,VWS V14.00,2013-02-06 20:04:00,
2013-02-06 14:09:00,29.6,21.0,30.12,SSW,205,0.0,3.0,70,0.00,,---,0.05,VWS V14.00,2013-02-06 20:09:00,
2013-02-06 14:14:00,29.7,21.5,30.12,SSW,203,3.0,5.0,71,0.00,,---,0.05,VWS V14.00,2013-02-06 20:14:00,
2013-02-06 14:19:00,29.9,21.7,30.12,SW,217,2.0,5.0,71,0.00,,---,0.06,VWS V14.00,2013-02-06 20:19:00,
2013-02-06 14:24:00,30.0,21.8,30.12,SSE,151,2.0,5.0,71,0.00,,---,0.06,VWS V14.00,2013-02-06 20:24:00,
2013-02-06 14:29:00,30.2,21.6,30.12,South,190,2.0,5.0,70,0.00,,---,0.06,VWS V14.00,2013-02-06 20:29:00,
2013-02-06 14:34:00,30.4,21.8,30.12,SSW,205,2.0,7.0,70,0.00,,---,0.06,VWS V14.00,2013-02-06 20:34:00,
2013-02-06 14:39:00,30.5,22.2,30.12,WNW,282,1.0,7.0,71,0.00,,---,0.06,VWS V14.00,2013-02-06 20:39:00,
2013-02-06 14:44:00,30.7,22.8,30.12,SW,225,5.0,7.0,72,0.00,,---,0.06,VWS V14.00,2013-02-06 20:44:00,
2013-02-06 14:49:00,30.8,22.9,30.12,West,263,3.0,4.0,72,0.00,,---,0.06,VWS V14.00,2013-02-06 20:49:00,
2013-02-06 14:54:00,31.0,22.7,30.12,SW,235,6.0,9.0,71,0.00,,---,0.06,VWS V14.00,2013-02-06 20:54:00,
2013-02-06 14:59:00,31.2,22.9,30.12,SW,216,6.0,6.0,71,0.00,,---,0.06,VWS V14.00,2013-02-06 20:59:00,
2013-02-06 15:04:00,31.4,23.1,30.11,SW,232,2.0,4.0,71,0.00,,---,0.06,VWS V14.00,2013-02-06 21:04:00,
2013-02-06 15:09:00,31.4,23.1,30.11,SW,234,7.0,10.0,71,0.00,,---,0.06,VWS V14.00,2013-02-06 21:09:00,
2013-02-06 15:14:00,31.2,23.2,30.11,SSW,203,3.0,6.0,72,0.00,,---,0.06,VWS V14.00,2013-02-06 21:14:00,
2013-02-06 15:19:00,31.2,23.2,30.11,SW,235,5.0,6.0,72,0.00,,---,0.06,VWS V14.00,2013-02-06 21:19:00,
2013-02-06 15:24:00,31.1,23.1,30.11,WSW,237,5.0,8.0,72,0.00,,---,0.06,VWS V14.00,2013-02-06 21:24:00,
2013-02-06 15:29:00,31.0,23.0,30.11,SSW,205,4.0,5.0,72,0.00,,---,0.06,VWS V14.00,2013-02-06 21:29:00,
2013-02-06 15:34:00,31.1,23.1,30.12,SW,232,6.0,7.0,72,0.00,,---,0.06,VWS V14.00,2013-02-06 21:34:00,
2013-02-06 15:39:00,31.1,23.5,30.12,WSW,239,5.0,5.0,73,0.00,,---,0.06,VWS V14.00,2013-02-06 21:39:00,
2013-02-06 15:44:00,31.1,23.5,30.12,SSW,206,0.0,4.0,73,0.00,,---,0.06,VWS V14.00,2013-02-06 21:44:00,
2013-02-06 15:49:00,31.1,23.5,30.12,WSW,242,4.0,6.0,73,0.00,,---,0.06,VWS V14.00,2013-02-06 21:49:00,
2013-02-06 15:54:00,31.0,23.4,30.12,SW,227,3.0,4.0,73,0.00,,---,0.06,VWS V14.00,2013-02-06 21:54:00,
2013-02-06 15:59:00,31.0,23.4,30.12,SSW,208,3.0,5.0,73,0.00,,---,0.06,VWS V14.00,2013-02-06 21:59:00,
2013-02-06 16:04:00,31.0,23.4,30.12,WSW,250,2.0,5.0,73,0.00,,---,0.06,VWS V14.00,2013-02-06 22:04:00,
2013-02-06 16:09:00,30.8,23.2,30.12,WSW,239,4.0,5.0,73,0.00,,---,0.06,VWS V14.00,2013-02-06 22:09:00,
2013-02-06 16:14:00,30.8,23.2,30.12,SW,232,3.0,3.0,73,0.00,,---,0.06,VWS V14.00,2013-02-06 22:14:00,
2013-02-06 16:19:00,30.8,23.2,30.12,WSW,237,0.0,4.0,73,0.00,,---,0.06,VWS V14.00,2013-02-06 22:19:00,
2013-02-06 16:24:00,30.9,23.6,30.12,South,175,0.0,4.0,74,0.00,,---,0.06,VWS V14.00,2013-02-06 22:24:00,
2013-02-06 16:29:00,30.8,23.2,30.12,SSE,147,2.0,3.0,73,0.00,,---,0.06,VWS V14.00,2013-02-06 22:29:00,
2013-02-06 16:34:00,30.8,23.5,30.10,South,171,1.0,2.0,74,0.00,,---,0.06,VWS V14.00,2013-02-06 22:34:00,
2013-02-06 16:39:00,30.7,23.4,30.10,South,170,1.0,2.0,74,0.00,,---,0.06,VWS V14.00,2013-02-06 22:39:00,
2013-02-06 16:44:00,30.7,23.4,30.10,SSE,148,2.0,4.0,74,0.00,,---,0.06,VWS V14.00,2013-02-06 22:44:00,
2013-02-06 16:49:00,30.7,23.7,30.11,SSE,163,3.0,4.0,75,0.00,,---,0.06,VWS V14.00,2013-02-06 22:49:00,
2013-02-06 16:54:00,30.7,23.7,30.11,SE,142,2.0,4.0,75,0.00,,---,0.06,VWS V14.00,2013-02-06 22:54:00,
2013-02-06 16:59:00,30.7,23.7,30.11,SSE,152,2.0,3.0,75,0.00,,---,0.06,VWS V14.00,2013-02-06 22:59:00,
2013-02-06 17:04:00,30.6,23.6,30.10,SSE,147,0.0,2.0,75,0.00,,---,0.06,VWS V14.00,2013-02-06 23:04:00,
2013-02-06 17:09:00,30.5,23.9,30.10,SSE,147,1.0,3.0,76,0.00,,---,0.06,VWS V14.00,2013-02-06 23:09:00,
2013-02-06 17:14:00,30.5,23.9,30.10,SE,146,0.0,2.0,76,0.00,,---,0.06,VWS V14.00,2013-02-06 23:14:00,
2013-02-06 17:19:00,30.4,23.8,30.10,SE,146,1.0,2.0,76,0.00,,---,0.06,VWS V14.00,2013-02-06 23:19:00,
2013-02-06 17:24:00,30.3,23.7,30.10,SE,146,0.0,2.0,76,0.00,,---,0.06,VWS V14.00,2013-02-06 23:24:00,
2013-02-06 17:29:00,30.2,23.9,30.10,SE,146,0.0,1.0,77,0.00,,---,0.06,VWS V14.00,2013-02-06 23:29:00,
2013-02-06 17:34:00,30.1,23.8,30.09,SE,146,0.0,1.0,77,0.00,,---,0.06,VWS V14.00,2013-02-06 23:34:00,
2013-02-06 17:39:00,30.1,23.8,30.09,SE,143,0.0,2.0,77,0.00,,---,0.06,VWS V14.00,2013-02-06 23:39:00,
2013-02-06 17:44:00,30.0,23.7,30.09,SE,142,1.0,2.0,77,0.00,,---,0.06,VWS V14.00,2013-02-06 23:44:00,
2013-02-06 17:49:00,29.9,23.6,30.09,SE,143,0.0,2.0,77,0.00,,---,0.06,VWS V14.00,2013-02-06 23:49:00,
2013-02-06 17:54:00,29.9,23.6,30.09,SE,126,2.0,3.0,77,0.00,,---,0.06,VWS V14.00,2013-02-06 23:54:00,
2013-02-06 17:59:00,29.8,23.5,30.09,SE,126,0.0,1.0,77,0.00,,---,0.06,VWS V14.00,2013-02-06 23:59:00,
2013-02-06 18:04:00,29.7,23.7,30.09,SE,142,1.0,2.0,78,0.00,,---,0.06,VWS V14.00,2013-02-07 00:04:00,
2013-02-06 18:09:00,29.7,23.7,30.09,SE,137,0.0,0.0,78,0.00,,---,0.06,VWS V14.00,2013-02-07 00:09:00,
2013-02-06 18:14:00,29.6,23.6,30.09,SE,137,0.0,1.0,78,0.00,,---,0.06,VWS V14.00,2013-02-07 00:14:00,
2013-02-06 18:19:00,29.5,23.5,30.08,SE,137,2.0,2.0,78,0.00,,---,0.06,VWS V14.00,2013-02-07 00:19:00,
2013-02-06 18:24:00,29.4,23.4,30.08,SE,138,2.0,4.0,78,0.00,,---,0.06,VWS V14.00,2013-02-07 00:24:00,
2013-02-06 18:29:00,29.3,23.3,30.08,SSE,150,2.0,3.0,78,0.00,,---,0.06,VWS V14.00,2013-02-07 00:29:00,
2013-02-06 18:34:00,29.3,23.6,30.08,SSE,155,1.0,3.0,79,0.00,,---,0.06,VWS V14.00,2013-02-07 00:34:00,
2013-02-06 18:39:00,29.3,23.6,30.08,SE,146,4.0,4.0,79,0.00,,---,0.06,VWS V14.00,2013-02-07 00:39:00,
2013-02-06 18:44:00,29.3,23.6,30.08,SE,146,2.0,4.0,79,0.00,,---,0.06,VWS V14.00,2013-02-07 00:44:00,
2013-02-06 18:49:00,29.3,23.6,30.07,SSE,161,4.0,5.0,79,0.00,,---,0.06,VWS V14.00,2013-02-07 00:49:00,
2013-02-06 18:54:00,29.4,24.0,30.07,SE,131,3.0,5.0,80,0.00,,---,0.06,VWS V14.00,2013-02-07 00:54:00,
2013-02-06 18:59:00,29.4,24.0,30.07,SSE,151,0.0,2.0,80,0.00,,---,0.06,VWS V14.00,2013-02-07 00:59:00,
2013-02-06 19:04:00,29.4,24.0,30.07,SSE,161,2.0,4.0,80,0.00,,---,0.06,VWS V14.00,2013-02-07 01:04:00,
2013-02-06 19:09:00,29.5,24.1,30.07,SSE,147,2.0,4.0,80,0.00,,---,0.06,VWS V14.00,2013-02-07 01:09:00,
2013-02-06 19:14:00,29.7,24.6,30.07,SE,137,1.0,5.0,81,0.00,,---,0.06,VWS V14.00,2013-02-07 01:14:00,
2013-02-06 19:19:00,29.7,24.6,30.07,SSE,154,4.0,6.0,81,0.00,,---,0.06,VWS V14.00,2013-02-07 01:19:00,
2013-02-06 19:24:00,29.8,24.7,30.07,SE,134,2.0,4.0,81,0.00,,---,0.06,VWS V14.00,2013-02-07 01:24:00,
2013-02-06 19:29:00,29.8,24.7,30.07,SE,138,4.0,5.0,81,0.00,,---,0.06,VWS V14.00,2013-02-07 01:29:00,
2013-02-06 19:34:00,29.8,24.7,30.06,SE,142,1.0,4.0,81,0.00,,---,0.06,VWS V14.00,2013-02-07 01:34:00,
2013-02-06 19:39:00,29.9,24.8,30.06,SSE,156,2.0,5.0,81,0.00,,---,0.06,VWS V14.00,2013-02-07 01:39:00,
2013-02-06 19:44:00,30.0,24.9,30.06,SE,137,0.0,5.0,81,0.00,,---,0.06,VWS V14.00,2013-02-07 01:44:00,
2013-02-06 19:49:00,30.2,25.1,30.08,South,180,1.0,3.0,81,0.00,,---,0.06,VWS V14.00,2013-02-07 01:49:00,
2013-02-06 19:54:00,30.3,25.2,30.08,SE,144,2.0,3.0,81,0.00,,---,0.06,VWS V14.00,2013-02-07 01:54:00,
2013-02-06 19:59:00,30.3,25.2,30.08,South,169,0.0,2.0,81,0.00,,---,0.06,VWS V14.00,2013-02-07 01:59:00,
2013-02-06 20:04:00,30.4,25.3,30.08,SSE,154,0.0,2.0,81,0.00,,---,0.06,VWS V14.00,2013-02-07 02:04:00,
2013-02-06 20:09:00,30.4,25.6,30.08,SE,140,2.0,4.0,82,0.00,,---,0.06,VWS V14.00,2013-02-07 02:09:00,
2013-02-06 20:14:00,30.3,25.5,30.08,SSE,151,1.0,3.0,82,0.00,,---,0.06,VWS V14.00,2013-02-07 02:14:00,
2013-02-06 20:19:00,30.5,25.7,30.07,SSE,168,0.0,2.0,82,0.00,,---,0.06,VWS V14.00,2013-02-07 02:19:00,
2013-02-06 20:24:00,30.6,25.8,30.07,SSE,168,0.0,1.0,82,0.00,,---,0.06,VWS V14.00,2013-02-07 02:24:00,
2013-02-06 20:29:00,30.6,25.8,30.07,SSE,168,0.0,1.0,82,0.00,,---,0.06,VWS V14.00,2013-02-07 02:29:00,
2013-02-06 20:34:00,30.6,25.8,30.08,SSE,168,0.0,0.0,82,0.00,,---,0.06,VWS V14.00,2013-02-07 02:34:00,
2013-02-06 20:39:00,30.5,25.7,30.08,South,185,0.0,0.0,82,0.00,,---,0.06,VWS V14.00,2013-02-07 02:39:00,
2013-02-06 20:44:00,30.4,25.6,30.08,South,185,1.0,1.0,82,0.00,,---,0.06,VWS V14.00,2013-02-07 02:44:00,
2013-02-06 20:49:00,30.3,25.8,30.07,South,185,0.0,1.0,83,0.00,,---,0.06,VWS V14.00,2013-02-07 02:49:00,
2013-02-06 20:54:00,30.4,25.9,30.07,SE,133,1.0,3.0,83,0.00,,---,0.06,VWS V14.00,2013-02-07 02:54:00,
2013-02-06 20:59:00,30.5,26.0,30.07,South,170,1.0,3.0,83,0.00,,---,0.06,VWS V14.00,2013-02-07 02:59:00,
2013-02-06 21:04:00,30.8,26.5,30.07,SSE,162,4.0,4.0,84,0.00,,---,0.06,VWS V14.00,2013-02-07 03:04:00,
2013-02-06 21:09:00,31.0,26.7,30.07,SSE,162,3.0,3.0,84,0.00,,---,0.06,VWS V14.00,2013-02-07 03:09:00,
2013-02-06 21:14:00,31.2,26.9,30.07,SSE,153,3.0,7.0,84,0.00,,---,0.06,VWS V14.00,2013-02-07 03:14:00,
2013-02-06 21:19:00,31.4,27.1,30.06,SE,135,3.0,6.0,84,0.00,,---,0.06,VWS V14.00,2013-02-07 03:19:00,
2013-02-06 21:24:00,31.5,27.2,30.06,South,180,3.0,7.0,84,0.00,,---,0.06,VWS V14.00,2013-02-07 03:24:00,
2013-02-06 21:29:00,31.7,27.4,30.06,SSE,155,3.0,4.0,84,0.00,,---,0.06,VWS V14.00,2013-02-07 03:29:00,
2013-02-06 21:34:00,31.8,27.8,30.05,ESE,121,8.0,8.0,85,0.00,,---,0.06,VWS V14.00,2013-02-07 03:34:00,
2013-02-06 21:39:00,31.9,27.6,30.05,SE,146,4.0,5.0,84,0.00,,---,0.06,VWS V14.00,2013-02-07 03:39:00,
2013-02-06 21:44:00,32.0,28.0,30.05,SSE,153,2.0,4.0,85,0.00,,---,0.06,VWS V14.00,2013-02-07 03:44:00,
2013-02-06 21:49:00,32.1,28.1,30.04,SE,140,5.0,7.0,85,0.00,,---,0.06,VWS V14.00,2013-02-07 03:49:00,
2013-02-06 21:54:00,32.2,28.2,30.04,SSE,159,3.0,7.0,85,0.00,,---,0.06,VWS V14.00,2013-02-07 03:54:00,
2013-02-06 21:59:00,32.3,28.3,30.04,SSE,165,5.0,8.0,85,0.00,,---,0.06,VWS V14.00,2013-02-07 03:59:00,
2013-02-06 22:04:00,32.4,28.4,30.04,South,188,4.0,7.0,85,0.00,,---,0.06,VWS V14.00,2013-02-07 04:04:00,
2013-02-06 22:09:00,32.4,28.4,30.04,SSE,152,8.0,8.0,85,0.00,,---,0.06,VWS V14.00,2013-02-07 04:09:00,
2013-02-06 22:14:00,32.5,28.5,30.04,SSE,160,2.0,8.0,85,0.00,,---,0.06,VWS V14.00,2013-02-07 04:14:00,
2013-02-06 22:19:00,32.6,28.6,30.04,SE,142,6.0,7.0,85,0.00,,---,0.06,VWS V14.00,2013-02-07 04:19:00,
2013-02-06 22:24:00,32.6,28.6,30.04,South,190,3.0,9.0,85,0.00,,---,0.06,VWS V14.00,2013-02-07 04:24:00,
2013-02-06 22:29:00,32.8,28.8,30.04,SSE,148,5.0,9.0,85,0.00,,---,0.06,VWS V14.00,2013-02-07 04:29:00,
2013-02-06 22:34:00,32.8,28.8,30.04,SE,146,8.0,9.0,85,0.00,,---,0.06,VWS V14.00,2013-02-07 04:34:00,
2013-02-06 22:39:00,32.7,28.7,30.04,SSE,166,7.0,10.0,85,0.00,,---,0.06,VWS V14.00,2013-02-07 04:39:00,
2013-02-06 22:44:00,32.8,28.8,30.04,SSE,152,7.0,9.0,85,0.00,,---,0.06,VWS V14.00,2013-02-07 04:44:00,
2013-02-06 22:49:00,32.8,29.1,30.04,SSE,155,8.0,11.0,86,0.00,,---,0.06,VWS V14.00,2013-02-07 04:49:00,
2013-02-06 22:54:00,32.8,29.1,30.04,SSE,150,10.0,10.0,86,0.00,,---,0.06,VWS V14.00,2013-02-07 04:54:00,
2013-02-06 22:59:00,32.8,29.1,30.04,South,179,4.0,10.0,86,0.00,,---,0.06,VWS V14.00,2013-02-07 04:59:00,
2013-02-06 23:00:00,32.8,29.1,30.04,South,169,6.0,8.0,86,0.00,,---,0.06,VWS V14.00,2013-02-07 05:00:00,
2013-02-06 23:01:00,32.9,29.2,30.04,SSE,164,5.0,10.0,86,0.00,,---,0.06,VWS V14.00,2013-02-07 05:01:00,
2013-02-06 23:06:00,32.8,29.1,30.04,SSE,163,8.0,10.0,86,0.00,,---,0.06,VWS V14.00,2013-02-07 05:06:00,
2013-02-06 23:11:00,32.8,29.1,30.04,South,182,5.0,10.0,86,0.00,,---,0.06,VWS V14.00,2013-02-07 05:11:00,
2013-02-06 23:16:00,32.8,29.1,30.04,SSE,158,8.0,11.0,86,0.00,,---,0.06,VWS V14.00,2013-02-07 05:16:00,
2013-02-06 23:21:00,32.8,29.1,30.03,South,175,9.0,9.0,86,0.00,,---,0.06,VWS V14.00,2013-02-07 05:21:00,
2013-02-06 23:26:00,32.8,29.1,30.03,South,176,5.0,9.0,86,0.00,,---,0.06,VWS V14.00,2013-02-07 05:26:00,
2013-02-06 23:31:00,32.8,29.1,30.03,SSE,168,3.0,6.0,86,0.00,,---,0.06,VWS V14.00,2013-02-07 05:31:00,
2013-02-06 23:36:00,32.9,29.2,30.04,SSE,161,4.0,5.0,86,0.00,,---,0.06,VWS V14.00,2013-02-07 05:36:00,
2013-02-06 23:41:00,32.9,29.2,30.04,SSE,161,4.0,4.0,86,0.00,,---,0.06,VWS V14.00,2013-02-07 05:41:00,
2013-02-06 23:46:00,32.8,29.1,30.04,South,172,2.0,3.0,86,0.00,,---,0.06,VWS V14.00,2013-02-07 05:46:00,
2013-02-06 23:51:00,32.9,29.2,30.05,West,273,2.0,5.0,86,0.00,,---,0.06,VWS V14.00,2013-02-07 05:51:00,
2013-02-06 23:56:00,32.8,29.1,30.05,South,178,1.0,4.0,86,0.00,,---,0.06,VWS V14.00,2013-02-07 05:56:00,